Location: Castiglione Fibocchi
(43.5333°N, 11.7667°E)
Time: 18:38:34
(UTC+00:00)

NOSS 8 (H) - Pass Details

Date: 15 August 2020
Orbit: 385 x 1789 km, 63.3° (Epoch: 20 September)

Event Time Altitude Azimuth Distance (km) Brightness Sun altitude
Exits shadow 02:24:21 73° 232° (SW) 421 4.0 -18.4°
Maximum altitude 02:24:37 85° 305° (NW) 403 4.0 -18.4°
Drops below altitude 10° 02:27:37 10° 36° (NE) 1,419 8.1 -18.0°
Sets 02:29:37 0° 37° (NE) 2,301 9.6 -17.7°
